SCP
0 0 0 0 0 0 0 0 0 0 0 0 0 0 0 0 0 0 0 0 0 0 0 0 0 0 0 0 0 0 0 0 0 0 0 0 0 0 0 0 0 0 0 0
0 0 0 0 0 0 0 0 0 0 0 0 0 0 0 0 0 0 0 0 0 0 0 0 0 0 0 0 0 0 0 0 0 0 0 0 0 0 0 0 0 0 0 0
0 0 0 0 0 0 0 0 0 0 0 0 0 0 0 0 0 0 0 0 0 0 0 0 0 0 0 0 0 0 0 0 0 0 0 0 0 0 0 0 0 0 0 0
0 0 0 0 0 0 0 0 0 0 0 0 0 0 0 0 0 0 0 0 0 0 0 0 0 0 0 0 0 0 0 0 0 0 0 0 0 0 0 0 0 0 0 0
0 0 0 0 0 0 0 0 0 0 0 0 0 0 0 0 0 0 0 0 0 0 0 0 0 0 0 0 0 0 0 0 0 0 0 0 0 0 0 0 0 0 0 0
0 0 0 0 0 0 0 0 0 0 0 0 0 0 0 0 0 0 0 0 0 0 0 0 0 0 0 0 0 0 0 0 0 0 0 0 0 0 0 0 0 0 0 0
0 0 0 0 0 0 0 0 0 0 0 0 0 0 0 0 0 0 0 0 0 0 0 0 0 0 0 0 0 0 0 0 0 0 0 0 0 0 0 0 0 0 0 0
0 0 0 0 0 0 0 0 0 0 0 0 0 0 0 0 0 0 0 0 0 0 0 0 0 0 0 0 0 0 0 0 0 0 0 0 0 0 0 0 0 0 0 0
0 0 0 0 0 0 0 0 0 0 0 0 0 0 0 0 0 0 0 0 0 0 0 0 0 0 0 0 0 0 0 0 0 0 0 0 0 0 0 0 0 0 0 0
0 0 0 0 0 0 0 0 0 0 0 0 0 0 0 0 0 0 0 0 0 0 0 0 0 0 0 0 0 0 0 0 0 0 0 0 0 0 0 0 0 0 0 0
0 0 0 0 0 0 0 0 0 0 0 0 0 0 0 0 0 0 0 0 0 0 0 0 0 0 0 0 0 0 0 0 0 0 0 0 0 0 0 0 0 0 0 0
0 0 0 0 0 0 0 0 0 0 0 0 0 0 0 0 0 0 0 0 0 0 0 0 0 0 0 0 0 0 0 0 0 0 0 0 0 0 0 0 0 0 0 0
0 0 0 0 0 0 0 0 0 0 0 0 0 0 0 0 0 0 0 0 0 0 0 0 0 0 0 0 0 0 0 0 0 0 0 0 0 0 0 0 0 0 0 0
0 0 0 0 0 0 0 0 0 0 0 0 0 0 0 0 0 0 0 0 0 0 0 0 0 0 0 0 0 0 0 0 0 0 0 0 0 0 0 0 0 0 0 0
0 0 0 0 0 0 0 0 0 0 0 0 0 0 0 0 0 0 0 0 0 0 0 0 0 0 0 0 0 0 0 0 0 0 0 0 0 0 0 0 0 0 0 0
0 0 0 0 0 0 0 0 0 0 0 0 0 0 0 0 0 0 0 0 0 0 0 0 0 0 0 0 0 0 0 0 0 0 0 0 0 0 0 0 0 0 0 0
0 0 0 0 0 0 0 0 0 0 0 0 0 0 0 0 0 0 0 0 0 0 0 0 0 0 0 0 0 0 0 0 0 0 0 0 0 0 0 0 0 0 0 0
0 0 0 0 0 0 0 0 0 0 0 0 0 0 0 0 0 0 0 0 0 0 0 0 0 0 0 0 0 0 0 0 0 0 0 0 0 0 0 0 0 0 0 0
0 0 0 0 0 0 0 0 0 0 0 0 0 0 0 0 0 0 0 0 0 0 0 0 0 0 0 0 0 0 0 0 0 0 0 0 0 0 0 0 0 0 0 0
0 0 0 0 0 0 0 0 0 0 0 0 0 0 0 0 0 0 0 0 0 0 0 0 0 0 0 0 0 0 0 0 0 0 0 0 0 0 0 0 0 0 0 0
0 0 0 0 0 0 0 0 0 0 0 0 0 0 0 0 0 0 0 0 0 0 0 0 0 0 0 0 0 0 0 0 0 0 0 0 0 0 0 0 0 0 0 0
0 0 0 0 0 0 0 0 0 0 0 0 0 0 0 0 0 0 0 0 0 0 0 0 0 0 0 0 0 0 0 0 0 0 0 0 0 0 0 0 0 0 0 0
0 0 0 0 0 0 0 0 0 0 0 0 0 0 0 0 0 0 0 0 0 0 0 0 0 0 0 0 0 0 0 0 0 0 0 0 0 0 0 0 0 0 0 0
0 0 0 0 0 0 0 0 0 0 0 0 0 0 0 0 0 0 0 0 0 0 0 0 0 0 0 0 0 0 0 0 0 0 0 0 0 0 0 0 0 0 0 0
0 0 0 0 0 0 0 0 0 0 0 0 0 0 0 0 0 0 0 0 0 0 0 0 0 0 0 0 0 0 0 0 0 0 0 0 0 0 0 0 0 0 0 0
0 0 0 0 0 0 0 0 0 0 0 0 0 0 0 0 0 0 0 0 0 0 0 0 0 0 0 0 0 0 0 0 0 0 0 0 0 0 0 0 0 0 0 0
0 0 0 0 0 0 0 0 0 0 0 0 0 0 0 0 0 0 0 0 0 0 0 0 0 0 0 0 0 0 0 0 0 0 0 0 0 0 0 0 0 0 0 0
Wind_Speed
7 6 6 8 9 9 8 8 6 4 4 2 3 4 4 4 4 5 6 6 7 7 7 7 7 7 7 7 8 8 8 7 6 6 5 4 4 4 3 2 3 3 3 3
8 7 7 8 8 9 9 9 7 6 4 1 2 3 4 5 4 4 4 5 6 7 7 8 8 6 7 7 8 8 8 7 6 6 6 5 4 4 4 3 2 2 3 3
7 7 7 9 9 10 9 7 6 6 4 2 3 3 3 3 4 4 4 4 5 5 6 7 8 7 7 7 7 8 8 7 7 6 6 6 5 5 5 4 3 2 3 3
6 7 9 4 4 6 7 7 7 5 3 3 3 3 3 3 3 4 5 4 5 4 5 5 7 8 8 7 7 7 7 8 7 7 6 6 5 5 5 4 4 3 3 4
5 7 7 6 6 7 7 6 5 5 4 3 4 3 2 3 3 3 3 4 4 4 4 4 6 7 8 8 8 7 7 8 8 8 7 7 6 5 4 4 4 4 4 4
5 6 6 4 3 4 4 5 4 4 4 3 4 3 2 3 3 2 2 3 3 3 3 3 4 6 7 7 8 7 8 8 8 8 7 7 6 5 4 4 4 4 4 4
7 7 5 2 2 3 4 1 3 3 3 4 3 2 4 4 3 3 3 3 2 3 3 3 4 5 6 6 6 6 6 7 7 7 7 6 6 5 4 4 4 4 4 4
7 8 5 2 3 2 1 2 3 2 3 3 4 5 5 4 3 3 3 3 2 2 2 2 3 5 6 5 5 6 6 7 7 7 7 6 5 4 4 4 4 4 3 3
4 2 2 1 2 2 1 2 2 2 3 4 4 3 4 3 3 2 2 2 2 2 2 2 3 4 5 5 5 6 6 7 7 7 6 6 6 5 4 4 3 3 3 3
4 3 3 2 2 2 2 2 2 2 3 3 2 3 3 3 3 3 2 2 2 3 3 3 3 4 4 4 6 6 6 6 6 6 6 5 5 5 5 4 4 4 3 3
3 2 2 2 2 2 2 2 2 2 2 2 2 3 3 3 3 3 2 2 2 2 3 3 3 4 4 5 5 5 5 5 5 5 5 5 4 3 4 4 5 5 3 3
2 1 2 2 2 2 1 1 1 0 1 2 2 2 3 3 3 3 3 2 2 2 3 3 3 3 4 5 5 5 5 4 4 4 4 4 4 3 2 3 5 5 4 4
2 3 2 1 2 1 1 1 1 1 1 2 2 2 2 3 3 3 3 3 2 2 2 3 4 3 3 4 4 4 4 4 3 4 4 4 4 4 3 1 1 3 5 6
1 2 2 2 1 1 1 1 1 1 1 2 2 2 2 3 3 3 3 3 2 2 2 2 3 3 3 3 3 3 3 4 4 3 3 4 4 4 4 4 3 2 3 6
1 1 2 2 1 1 1 1 2 2 2 2 2 2 2 2 3 3 3 3 2 2 2 3 3 3 3 3 3 3 3 3 3 3 3 3 3 3 3 4 4 3 2 3
2 2 2 1 0 0 0 1 1 1 1 1 2 2 2 2 2 3 3 3 2 2 2 2 2 2 2 3 3 3 2 4 3 3 3 3 3 3 3 3 3 3 4 4
3 3 3 2 1 1 1 0 0 1 1 1 1 1 2 2 3 3 3 2 2 2 2 2 2 2 2 2 2 2 2 3 4 3 2 2 2 3 3 3 3 3 3 4
3 2 2 1 1 1 0 1 1 0 0 1 1 1 2 2 2 2 3 3 2 2 2 2 2 2 2 2 2 2 2 3 3 2 2 2 2 2 2 2 2 2 2 3
1 1 0 0 0 0 1 0 0 1 1 0 1 1 1 2 2 2 2 3 2 1 1 2 3 2 2 2 2 1 2 2 2 2 2 2 2 2 2 2 2 2 2 2
1 1 1 1 1 1 0 1 1 1 1 1 1 1 1 1 2 2 2 2 2 1 1 2 2 2 2 2 1 1 1 1 1 1 1 1 1 1 1 1 1 2 2 2
2 2 1 1 1 1 1 1 1 1 1 1 1 1 1 1 1 2 2 2 2 2 2 2 2 2 2 1 2 1 1 1 1 1 1 1 1 1 1 1 1 1 1 1
1 1 1 1 1 1 1 1 1 1 1 1 1 1 1 1 1 1 1 1 2 3 2 1 1 2 1 1 1 2 2 1 1 1 1 1 1 1 1 0 0 0 0 0
0 0 1 1 1 1 1 1 1 1 1 1 1 1 1 1 1 2 2 1 2 3 1 1 2 2 1 1 1 2 2 2 2 1 1 1 1 1 0 0 0 0 0 0
1 1 1 2 1 1 1 1 1 1 1 1 1 1 1 1 1 1 1 3 3 3 1 2 2 3 2 2 2 2 2 2 2 2 1 1 1 0 1 0 0 0 0 1
1 1 1 1 1 1 1 1 0 0 1 0 0 0 0 1 1 2 2 2 3 2 1 2 2 3 2 2 2 2 2 2 2 2 1 1 1 1 1 1 0 0 0 1
1 1 1 2 2 1 1 0 0 0 0 0 1 1 1 1 1 1 1 2 2 1 1 1 2 2 2 1 2 2 1 2 2 2 1 1 1 1 1 1 0 0 1 1
1 1 1 1 1 1 1 1 0 0 1 1 0 1 1 1 1 1 1 1 1 1 1 1 1 1 1 1 1 1 1 1 2 2 1 1 1 1 1 1 1 1 1 1
Wind_Direction
254 253 239 226 221 223 232 240 244 245 245 215 150 141 135 135 140 151 158 164 165 162 167 169 174 175 175 175 169 164 163 166 169 163 153 157 155 150 142 134 139 134 122 116
253 248 253 242 226 223 228 236 238 253 259 204 146 136 142 150 151 155 164 169 171 169 169 171 175 174 168 169 171 167 166 167 165 161 155 158 154 150 141 135 121 120 124 121
250 238 251 245 228 226 230 234 230 242 241 186 162 163 165 160 158 160 170 173 175 181 179 179 178 173 171 175 170 168 166 161 161 161 157 161 161 152 151 148 146 146 138 123
252 243 246 242 219 218 228 234 230 231 211 203 177 164 154 156 165 175 174 173 179 188 186 185 177 172 174 173 168 172 167 163 162 162 159 158 159 161 161 156 159 157 145 131
254 249 251 240 215 207 219 226 223 217 204 195 166 166 160 149 150 157 168 170 171 181 185 185 180 174 172 171 170 172 168 167 165 162 158 159 167 168 167 164 160 161 160 153
240 246 248 229 172 174 218 225 208 207 188 186 177 181 156 116 119 126 133 146 152 163 177 182 182 173 173 172 170 174 170 167 162 159 159 165 171 168 164 162 163 165 166 163
240 246 254 245 146 164 217 200 135 155 163 178 177 125 108 98 89 99 109 116 132 161 179 186 177 168 170 167 170 167 159 156 155 154 159 162 164 164 163 163 162 169 167 168
225 237 234 181 179 187 103 67 89 108 109 102 94 98 103 105 104 106 112 116 130 159 169 172 165 164 166 168 161 151 150 150 151 154 161 161 157 164 167 162 166 178 175 178
215 206 141 143 103 71 55 47 50 75 83 93 96 104 113 118 119 112 112 133 143 153 151 151 153 155 160 155 146 144 145 150 153 155 157 155 157 164 168 173 179 186 180 182
216 195 167 151 89 47 45 37 32 59 81 93 116 121 123 127 124 122 119 131 145 150 149 148 147 144 146 140 142 143 147 151 152 154 157 159 163 170 175 179 184 187 188 187
238 186 155 116 83 52 49 37 28 46 76 103 119 133 129 131 130 129 126 123 140 151 146 138 136 139 136 139 144 151 155 155 157 158 157 158 158 166 174 180 178 177 185 176
251 249 235 169 142 112 83 52 28 49 99 102 111 125 122 126 126 128 133 134 136 143 142 147 146 144 143 145 154 161 162 163 159 153 151 155 153 139 110 152 163 166 166 169
301 333 1 56 72 103 129 119 104 80 115 119 120 119 128 125 123 127 135 140 142 142 149 154 146 149 149 150 159 167 162 160 154 156 159 163 164 164 163 94 109 181 186 179
352 7 341 0 356 5 95 114 111 101 93 105 113 114 120 129 132 141 146 143 137 138 144 141 142 147 150 155 158 166 164 159 152 157 164 170 174 175 174 178 190 213 212 198
313 304 276 280 305 63 86 98 100 94 83 79 84 100 115 133 142 143 134 126 127 137 144 144 140 144 155 160 160 168 163 156 155 159 165 172 178 180 187 194 193 183 173 199
268 233 236 241 255 294 96 121 121 103 88 86 91 98 98 99 117 124 120 125 140 145 132 131 137 144 153 151 151 160 162 161 158 162 169 176 182 191 196 198 200 192 190 184
244 222 214 208 212 259 299 321 104 98 100 98 105 125 124 116 115 119 118 115 117 118 128 137 138 140 142 135 139 148 152 159 163 168 173 178 190 201 199 198 205 206 197 180
244 239 235 197 184 216 297 348 34 11 57 101 86 121 136 140 140 143 142 130 111 96 99 113 115 115 114 120 131 143 150 157 173 181 176 184 195 202 202 207 208 203 191 182
263 248 260 319 74 359 337 334 323 295 284 174 163 150 144 151 145 141 137 135 139 141 120 96 111 122 129 125 121 142 154 159 168 174 172 177 194 202 206 210 208 202 192 180
237 244 218 230 196 190 267 297 273 265 267 221 200 177 166 154 146 143 138 141 148 145 116 117 137 142 128 126 139 156 159 167 163 161 168 183 205 217 216 216 217 215 203 196
211 220 214 221 228 209 219 231 239 259 283 240 209 198 180 157 144 137 132 138 128 106 111 126 140 137 141 147 167 167 169 173 174 178 175 178 201 222 233 231 227 233 226 213
221 217 221 222 223 235 234 225 235 244 256 256 202 181 163 142 133 131 138 143 120 110 119 139 137 115 99 140 174 175 167 163 169 175 177 176 181 206 232 255 250 216 139 181
319 326 264 238 236 245 248 237 242 237 225 227 228 206 176 168 177 168 165 126 116 114 128 165 158 147 150 176 175 164 161 161 161 160 162 171 180 181 179 265 3 39 82 56
345 328 307 302 285 256 258 259 252 255 223 193 219 235 196 161 149 120 116 131 133 143 160 166 164 176 192 189 172 168 170 166 161 162 167 168 161 150 132 119 79 48 83 65
273 291 297 304 306 308 292 300 318 349 12 42 181 144 120 135 141 132 130 143 146 150 154 165 177 192 194 176 167 172 175 172 166 159 160 159 150 140 134 135 133 111 106 102
308 302 305 308 323 332 319 297 180 142 26 20 8 26 49 80 106 119 127 134 134 137 161 171 179 182 178 168 171 178 178 172 162 158 160 156 145 143 147 158 170 140 117 93
305 311 330 331 332 321 310 302 254 215 189 156 125 36 34 66 108 119 126 141 150 157 161 163 176 177 175 167 167 171 171 164 152 146 144 150 152 154 151 148 128 112 105 97